�������r�C�����j�^�v���󋵏��
Date,Time,5�C6���@���p�r�C��,����,����(m/s)
2022/09/18,00:00,3.7,��,7.1
2022/09/18,00:10,3.7,��,8.2
2022/09/18,00:20,3.7,��,8.7
2022/09/18,00:30,3.8,��,9.1
2022/09/18,00:40,3.7,��,7.0
2022/09/18,00:50,3.7,��,8.3
2022/09/18,01:00,3.7,��,7.1
2022/09/18,01:10,3.7,��,7.5
2022/09/18,01:20,3.7,��,7.9
2022/09/18,01:30,3.7,��,6.9
2022/09/18,01:40,3.7,��,7.5
2022/09/18,01:50,3.6,��,7.8
2022/09/18,02:00,3.7,��,7.5
2022/09/18,02:10,3.5,��,7.7
2022/09/18,02:20,3.8,��,7.5
2022/09/18,02:30,3.9,��,7.1
2022/09/18,02:40,3.6,��쐼,7.1
2022/09/18,02:50,3.6,��,5.8
2022/09/18,03:00,3.8,��,6.5
2022/09/18,03:10,3.8,��,7.5
2022/09/18,03:20,3.6,��,7.1
2022/09/18,03:30,3.8,��,6.8
2022/09/18,03:40,3.8,��,6.6
2022/09/18,03:50,3.8,��,6.7
2022/09/18,04:00,3.6,��,7.2
2022/09/18,04:10,3.8,��,6.9
2022/09/18,04:20,3.6,��,8.0
2022/09/18,04:30,3.6,��,7.3
2022/09/18,04:40,3.8,��,7.0
2022/09/18,04:50,3.5,��,5.6
2022/09/18,05:00,3.7,��,6.8
2022/09/18,05:10,3.6,��,6.5
2022/09/18,05:20,3.6,��,6.2
2022/09/18,05:30,3.7,��,6.3
2022/09/18,05:40,3.8,��,6.3
2022/09/18,05:50,3.6,��,6.6
2022/09/18,06:00,3.8,��,6.8
2022/09/18,06:10,3.6,��,6.1
2022/09/18,06:20,3.6,��,5.9
2022/09/18,06:30,3.7,��,6.4
2022/09/18,06:40,3.6,��,7.0
2022/09/18,06:50,3.5,��,5.9
2022/09/18,07:00,3.6,��,6.5
2022/09/18,07:10,3.9,��,6.7
2022/09/18,07:20,3.8,��,6.9
2022/09/18,07:30,3.6,��,6.7
2022/09/18,07:40,3.8,��,5.7
2022/09/18,07:50,3.7,��,5.9
2022/09/18,08:00,3.7,��,5.4
2022/09/18,08:10,3.7,��,5.2
2022/09/18,08:20,3.6,��,5.7
2022/09/18,08:30,3.7,��,6.5
2022/09/18,08:40,3.6,��,6.9
2022/09/18,08:50,3.7,��,5.7
2022/09/18,09:00,3.6,��,7.0
2022/09/18,09:10,3.6,��,7.0
2022/09/18,09:20,3.7,��,7.3
2022/09/18,09:30,3.7,��,8.7
2022/09/18,09:40,3.6,��,8.6
2022/09/18,09:50,3.8,��,7.3
2022/09/18,10:00,3.9,��,7.5
2022/09/18,10:10,3.6,��,7.8
2022/09/18,10:20,3.6,��,7.6
2022/09/18,10:30,3.7,��쓌,7.2
2022/09/18,10:40,3.6,��,9.9
2022/09/18,10:50,3.8,��,10.2
2022/09/18,11:00,3.9,��쓌,11.3
2022/09/18,11:10,3.6,��쓌,11.4
2022/09/18,11:20,3.8,��,10.6
2022/09/18,11:30,3.6,��,11.6
2022/09/18,11:40,3.8,��,11.3
2022/09/18,11:50,3.6,��,11.1
2022/09/18,12:00,3.7,��,10.6
2022/09/18,12:10,3.6,��,10.7
2022/09/18,12:20,3.6,��,11.4
2022/09/18,12:30,3.5,��,11.3
2022/09/18,12:40,3.7,��쓌,12.2
2022/09/18,12:50,3.6,��쓌,10.0
2022/09/18,13:00,3.6,��,10.3
2022/09/18,13:10,3.6,��,10.6
2022/09/18,13:20,3.6,��쓌,8.4
2022/09/18,13:30,3.7,��쓌,9.5
2022/09/18,13:40,3.6,��쓌,10.3
2022/09/18,13:50,3.6,��,9.6
2022/09/18,14:00,3.6,��,10.4
2022/09/18,14:10,3.6,��쓌,10.6
2022/09/18,14:20,3.6,��,8.4
2022/09/18,14:30,3.6,��쓌,7.8
2022/09/18,14:40,3.6,��쓌,8.4
2022/09/18,14:50,3.6,��,8.4
2022/09/18,15:00,3.6,��,7.4
2022/09/18,15:10,3.6,��,8.5
2022/09/18,15:20,3.6,��,9.4
2022/09/18,15:30,3.7,��쓌,9.6
2022/09/18,15:40,3.6,��,11.3
2022/09/18,15:50,3.8,��,11.6
2022/09/18,16:00,3.8,��,9.2
2022/09/18,16:10,3.7,��,9.3
2022/09/18,16:20,3.7,��,9.5
2022/09/18,16:30,3.6,��,9.0
2022/09/18,16:40,3.8,��,8.7
2022/09/18,16:50,3.6,��,9.4
2022/09/18,17:00,3.6,��,8.9
2022/09/18,17:10,3.5,��,9.2
2022/09/18,17:20,3.7,��,9.0
2022/09/18,17:30,3.6,��,9.4
2022/09/18,17:40,3.5,��,7.9
2022/09/18,17:50,3.8,��쓌,8.7
2022/09/18,18:00,3.9,��쓌,8.5
2022/09/18,18:10,3.5,��쓌,9.3
2022/09/18,18:20,3.6,��,9.1
2022/09/18,18:30,3.7,��,9.2
2022/09/18,18:40,3.6,��,8.7
2022/09/18,18:50,3.7,��,7.5
2022/09/18,19:00,3.6,��,7.9
2022/09/18,19:10,3.6,��,7.9
2022/09/18,19:20,3.6,��,8.0
2022/09/18,19:30,3.6,��쓌,8.5
2022/09/18,19:40,3.6,��쓌,9.3
2022/09/18,19:50,3.5,��,9.6
2022/09/18,20:00,3.7,��,10.3
2022/09/18,20:10,3.6,��,8.9
2022/09/18,20:20,3.7,��,9.0
2022/09/18,20:30,3.6,��쓌,9.6
2022/09/18,20:40,3.6,��쓌,11.7
2022/09/18,20:50,3.6,��쓌,11.8
2022/09/18,21:00,3.8,��,11.1
2022/09/18,21:10,3.6,��,9.0
2022/09/18,21:20,3.7,��쓌,9.6
2022/09/18,21:30,3.6,��,10.8
2022/09/18,21:40,3.5,��,9.8
2022/09/18,21:50,3.5,��,10.6
2022/09/18,22:00,3.8,��,10.7
2022/09/18,22:10,3.6,��,9.0
2022/09/18,22:20,3.7,��,9.0
2022/09/18,22:30,3.7,��,8.9
2022/09/18,22:40,3.6,��,8.0
2022/09/18,22:50,3.6,��,8.7
2022/09/18,23:00,3.5,��,9.0
2022/09/18,23:10,3.7,��,8.5
2022/09/18,23:20,3.9,��,8.1
2022/09/18,23:30,3.7,��,8.8
2022/09/18,23:40,3.6,��,9.4
2022/09/18,23:50,3.7,��,10.2
